Rockwall, TX

11:41 PM CST on November 18, 2017 (GMT -0600)
Rockwall

Weather History for KF46 - October, 2012

Change the Weather History Date:

Monday, October 29, 2012

  Actual Average (KDFW) Record (KDFW)
Temperature  
Mean Temperature 52 °F -  
Max Temperature 66 °F 71 °F 92 °F (1937)
Min Temperature 39 °F 53 °F 31 °F (1910)
Degree Days  
Heating Degree Days 12    
Growing Degree Days 2 (Base 50)    
Moisture  
Dew Point 31 °F    
Average Humidity 49    
Maximum Humidity 82    
Minimum Humidity 22    
Precipitation  
Precipitation 0.00 in - - ()
Sea Level Pressure  
Sea Level Pressure 30.23 in    
Wind  
Wind Speed 2 mph ()    
Max Wind Speed 8 mph    
Max Gust Speed -    
Visibility 9.9 miles    
Events      
Averages and records for this station are not official NWS values.
T = Trace of Precipitation, MM = Missing Value Source: Averaged Metar Reports

Daily Weather History Graph

Daily Weather History Graph

Search for Another Location

Airport or City:

Trip Planner

Search our weather history database for the weather conditions in past years. The results will help you decide how hot, cold, wet, or windy it might be!

Date:

Astronomy

Oct. 29, 2012 Rise Set
Actual Time 7:41 AM CDT 6:36 PM CDT
Civil Twilight 7:16 AM CDT 7:02 PM CDT
Nautical Twilight 6:47 AM CDT 7:31 PM CDT
Astronomical Twilight 6:18 AM CDT 8:00 PM CDT
Moon 6:32 PM CDT (10/29) 7:31 AM CDT (10/29)
Length of Visible Light 11h 46m
Length of Day
10h 55m
Full, 100% of the Moon is Illuminated
Oct 29
Full
Oct 29
Full
Nov 6
Last Quarter
Nov 13
New
Nov 20
First Quarter

Hourly Weather History & Observations

Time (CDT) Temp. Windchill Dew Point Humidity Pressure Visibility Wind Dir Wind Speed Gust Speed Precip Events Conditions
12:15 AM 46.4 °F 45.2 °F 27.9 °F 48% 30.24 in 10.0 mi ENE 3.5 mph - N/A   Clear
12:35 AM 46.0 °F - 27.3 °F 48% 30.24 in 10.0 mi Calm Calm - N/A   Clear
12:55 AM 43.3 °F - 32.9 °F 67% 30.24 in 10.0 mi Calm Calm - N/A   Clear
1:15 AM 41.9 °F - 36.7 °F 82% 30.24 in 10.0 mi Calm Calm - N/A   Clear
1:35 AM 43.3 °F - 33.4 °F 68% 30.25 in 10.0 mi Calm Calm - N/A   Clear
1:55 AM 43.5 °F - 32.0 °F 64% 30.25 in 10.0 mi Calm Calm - N/A   Clear
2:15 AM 41.9 °F - 33.6 °F 72% 30.25 in 10.0 mi Calm Calm - N/A   Clear
2:35 AM 41.9 °F - 34.2 °F 74% 30.25 in 10.0 mi Calm Calm - N/A   Clear
2:55 AM 41.2 °F - 35.6 °F 81% 30.25 in 10.0 mi Calm Calm - N/A   Clear
3:15 AM 42.3 °F - 31.8 °F 67% 30.25 in 10.0 mi Calm Calm - N/A   Clear
3:35 AM 41.4 °F - 32.7 °F 71% 30.25 in 10.0 mi Calm Calm - N/A   Clear
3:55 AM 40.8 °F - 30.4 °F 66% 30.25 in 10.0 mi Calm Calm - N/A   Clear
4:15 AM 40.6 °F - 33.1 °F 74% 30.25 in 10.0 mi Calm Calm - N/A   Clear
4:35 AM 41.2 °F - 30.6 °F 66% 30.25 in 10.0 mi Calm Calm - N/A   Clear
5:15 AM 41.2 °F - 27.5 °F 58% 30.25 in 10.0 mi Calm Calm - N/A   Clear
5:55 AM 39.4 °F - 30.6 °F 71% 30.25 in 10.0 mi Calm Calm - N/A   Clear
6:15 AM 40.1 °F 36.9 °F 28.4 °F 63% 30.25 in 10.0 mi East 4.6 mph - N/A   Clear
6:35 AM 41.2 °F 38.2 °F 27.5 °F 58% 30.25 in 10.0 mi East 4.6 mph - N/A   Clear
6:55 AM 41.2 °F 38.2 °F 27.5 °F 58% 30.25 in 10.0 mi East 4.6 mph - N/A   Clear
7:15 AM 40.5 °F 37.3 °F 27.5 °F 60% 30.26 in 10.0 mi East 4.6 mph - N/A   Clear
7:35 AM 40.8 °F 38.8 °F 28.2 °F 61% 30.26 in 10.0 mi ENE 3.5 mph - N/A   Clear
7:55 AM 40.5 °F - 27.7 °F 60% 30.26 in 10.0 mi Calm Calm - N/A   Clear
8:15 AM 40.5 °F - 29.8 °F 66% 30.27 in 7.0 mi Calm Calm - N/A   Clear
8:35 AM 40.8 °F - 31.6 °F 70% 30.27 in 10.0 mi Calm Calm - N/A   Clear
8:55 AM 41.7 °F - 32.7 °F 70% 30.28 in 10.0 mi Calm Calm - N/A   Clear
9:15 AM 46.2 °F - 32.5 °F 59% 30.29 in 10.0 mi Calm Calm - N/A   Clear
9:35 AM 49.3 °F - 32.7 °F 53% 30.30 in 10.0 mi Calm Calm - N/A   Clear
9:55 AM 52.0 °F - 31.5 °F 46% 30.30 in 10.0 mi East 3.5 mph - N/A   Clear
10:15 AM 54.0 °F - 32.0 °F 43% 30.30 in 10.0 mi East 4.6 mph - N/A   Clear
10:55 AM 55.8 °F - 32.5 °F 41% 30.30 in 10.0 mi ESE 4.6 mph - N/A   Clear
11:15 AM 57.9 °F - 30.4 °F 35% 30.30 in 10.0 mi Calm Calm - N/A   Clear
11:35 AM 59.0 °F - 31.3 °F 35% 30.30 in 10.0 mi Calm Calm - N/A   Clear
11:55 AM 60.1 °F - 29.5 °F 31% 30.30 in 10.0 mi Calm Calm - N/A   Clear
12:15 PM 61.2 °F - 31.5 °F 33% 30.28 in 10.0 mi South 3.5 mph - N/A   Clear
12:35 PM 60.8 °F - 30.0 °F 31% 30.27 in 10.0 mi Calm Calm - N/A   Clear
12:55 PM 63.0 °F - 31.5 °F 31% 30.27 in 10.0 mi Calm Calm - N/A   Clear
1:15 PM 63.9 °F - 32.2 °F 31% 30.25 in 10.0 mi Calm Calm - N/A   Clear
1:35 PM 64.2 °F - 29.8 °F 27% 30.24 in 10.0 mi Calm Calm - N/A   Clear
2:15 PM 64.9 °F - 31.8 °F 29% 30.21 in 10.0 mi SSW 6.9 mph - N/A   Clear
2:55 PM 66.0 °F - 32.2 °F 28% 30.19 in 10.0 mi SW 6.9 mph - N/A   Clear
3:35 PM 65.7 °F - 25.5 °F 22% 30.17 in 10.0 mi West 5.8 mph - N/A   Clear
3:55 PM 66.2 °F - 25.7 °F 22% 30.17 in 10.0 mi WSW 6.9 mph - N/A   Clear
4:15 PM 65.3 °F - 27.7 °F 24% 30.16 in 10.0 mi WNW 5.8 mph - N/A   Clear
4:55 PM 65.5 °F - 28.2 °F 25% 30.15 in 10.0 mi Calm Calm - N/A   Clear
5:15 PM 65.3 °F - 29.5 °F 26% 30.15 in 10.0 mi West 4.6 mph - N/A   Clear
5:35 PM 65.1 °F - 29.7 °F 26% 30.14 in 10.0 mi West 3.5 mph - N/A   Clear
5:55 PM 64.4 °F - 29.3 °F 27% 30.14 in 10.0 mi West 3.5 mph - N/A   Clear
6:15 PM 63.5 °F - 31.3 °F 30% 30.14 in 10.0 mi Calm Calm - N/A   Clear
6:35 PM 63.0 °F - 30.2 °F 29% 30.14 in 10.0 mi Calm Calm - N/A   Clear
6:55 PM 61.7 °F - 29.3 °F 29% 30.14 in 10.0 mi Calm Calm - N/A   Clear
7:15 PM 56.5 °F - 32.9 °F 41% 30.14 in 10.0 mi Calm Calm - N/A   Clear
7:35 PM 54.9 °F - 33.6 °F 45% 30.14 in 10.0 mi East 3.5 mph - N/A   Clear
10:55 PM 52.7 °F - 33.6 °F 48% 30.14 in 10.0 mi SE 6.9 mph - N/A   Clear
11:15 PM 52.7 °F - 33.1 °F 47% 30.14 in 10.0 mi SE 6.9 mph - N/A   Clear
11:35 PM 52.7 °F - 32.9 °F 47% 30.13 in 10.0 mi SE 8.1 mph - N/A   Clear
11:55 PM 51.3 °F - 33.4 °F 51% 30.12 in 10.0 mi SE 4.6 mph - N/A   Clear